Location: Georgenberg
(48.1500°N, 16.2500°E)
Time: 03:43:58
(UTC+01:00)

N. Korean satellite - Pass Details

Date: 06 December 2022
Orbit: 408 x 444 km, 97.3° (Epoch: 28 January)

Event Time Altitude Azimuth Distance (km) Brightness Sun altitude
Rises 04:39:37 0° 23° (NNE) 2,514 10.4 -27.4°
Reaches altitude 10° 04:41:55 10° 35° (NE) 1,626 9.6 -27.0°
Maximum altitude 04:44:56 27° 95° (E) 925 8.6 -26.5°
Drops below altitude 10° 04:47:53 10° 155° (SSE) 1,589 9.5 -26.1°
Sets 04:50:06 0° 168° (SSE) 2,445 10.4 -25.7°
